[[{"header":{"parameterUnit":"m.s-1","parameterCategory":1,"la1":30.2991,"la2":30.254,"lo1":-89.0895,"lo2":-89.0444,"dy":0.0017,"dx":0.0017,"nx":28,"ny":28,"refTime":"2025-06-19T21:00:00:Z","depth":0,"parameterNumber":2,"parameterNumberName":"U-component_of_WINDS"},"data":[0,0,0,0,0,0,0,0,0,0,0,0,0,0,0,0,0,0,0,0,0,0,0,0,0,0,0,0,0,0,0,0,0,0,0,0,0,0,0,0,0,0,0,0,0,0,0,0,0,0,0,0,0,0,0,0,0,0,1.8439,1.844,0,1.8525,1.8526,1.8527,1.8532,1.8531,1.853,1.8529,1.8625,1.8629,1.8632,0,0,0,0,0,0,0,0,0,0,0,0,0,1.8287,1.829,1.8439,1.844,1.8441,1.8525,1.8526,1.8527,1.8532,1.8531,1.853,1.8529,1.8624,1.8628,1.8632,0,0,0,0,0,0,0,0,0,0,0,0,0,1.8361,1.8291,1.8439,1.8454,1.8456,1.8525,1.8526,1.8528,1.8533,1.8531,1.853,1.8528,1.8623,1.8628,1.8633,1.8695,0,0,1.8649,1.8651,0,0,0,0,0,0,0,0,1.8357,1.8367,1.845,1.8453,1.8455,1.8516,1.8508,1.8584,1.8533,1.8504,1.8529,1.8527,1.8591,1.8598,1.8618,1.87,1.8704,1.8649,1.8653,1.8655,1.8656,0,0,0,0,0,0,0,1.8352,1.8363,1.8473,1.8452,1.8455,1.8459,1.8467,1.8522,1.8555,1.8506,1.8507,1.8516,1.8592,1.8613,1.862,1.8705,1.8649,1.8654,1.8657,1.8659,1.8844,1.8846,0,0,0,0,0,0,1.8343,1.8359,1.8471,1.8476,1.8401,1.8463,1.8472,1.8498,1.8554,1.8561,1.8518,1.8516,1.8605,1.8614,1.8624,1.8701,1.8655,1.866,1.8663,1.8843,1.8845,1.8847,0,0,0,0,0,0,1.834,1.8353,1.8467,1.8418,1.8432,1.8467,1.8496,1.8501,1.8522,1.8563,1.8569,1.8533,1.8604,1.8616,1.8677,1.8704,1.8662,1.8667,1.8841,1.8843,1.8846,1.8855,0,0,0,0,0,0,1.8335,1.8352,1.8374,1.8418,1.8435,1.8516,1.8497,1.8504,1.853,1.8529,1.8579,1.8586,1.8604,1.8669,1.8682,1.8711,1.8671,1.8838,1.8842,1.8845,1.8853,1.8858,1.8862,0,0,0,0,0,1.833,1.8374,1.8375,1.8388,1.8463,1.8518,1.8528,1.8546,1.8532,1.8556,1.8582,1.8584,1.8699,1.8676,1.869,1.8721,1.8837,1.8841,1.8845,1.885,1.8857,1.8862,0,0,0,0,0,0,1.8334,1.838,1.8381,1.8441,1.8475,1.8518,1.8549,1.8552,1.8593,1.859,1.8614,1.8625,1.8685,1.8709,1.8682,1.8785,1.8767,1.8774,1.8766,1.8773,1.8777,1.877,1.8675,0,0,0,0,0,1.8342,1.838,1.8419,1.8468,1.8485,1.8514,1.8539,1.855,1.8587,1.8602,1.8633,1.8672,1.8717,1.8747,1.879,1.8857,1.8868,1.8885,1.889,1.8894,1.89,1.8938,1.8946,1.886,1.886,1.886,0,0,1.8359,1.8388,1.8412,1.847,1.8498,1.854,1.8526,1.8571,1.8603,1.861,1.8668,1.8693,1.8738,1.8802,1.8832,1.8824,1.8926,1.8899,1.8901,1.8905,1.8942,1.895,1.8958,1.8863,1.8862,1.8862,0,0,1.841,1.8436,1.8479,1.8507,1.8549,1.8568,1.8579,1.8622,1.8638,1.8696,1.8703,1.8743,1.882,1.8852,1.8878,1.8943,1.8947,1.8957,1.8982,1.9019,1.9026,1.9032,1.9056,1.9064,1.8963,1.8963,1.8963,0,1.8426,1.8486,1.8502,1.8546,1.8573,1.8579,1.8625,1.8653,1.8708,1.8727,1.8717,1.8814,1.8845,1.8916,1.8932,1.8953,1.8968,1.8951,1.9023,1.9029,1.9035,1.9058,1.9067,1.8964,1.8964,1.8964,1.8964,0,1.8504,1.8546,1.8577,1.8627,1.8657,1.8702,1.8728,1.8757,1.8766,1.8787,1.8848,1.8885,1.8937,1.8955,1.8965,1.9029,1.9023,1.9018,1.9,1.9044,1.9066,1.9075,1.8965,1.8965,1.8965,1.8965,0,0,1.8559,1.8618,1.8629,1.8652,1.8699,1.8734,1.8781,1.8829,1.8853,1.8892,1.8933,1.8998,1.8994,1.9024,1.9038,1.907,1.912,1.9062,1.9063,1.9071,1.9194,1.9197,1.9206,1.9123,1.9125,1.9126,1.919,0,1.8615,1.8695,1.8711,1.8782,1.8822,1.883,1.8871,1.8906,1.8927,1.8967,1.8992,1.9037,1.9028,1.9046,1.9079,1.9107,1.9145,1.9103,1.9163,1.9165,1.915,1.9218,1.9221,1.9279,1.9199,1.92,1.9201,0,1.8691,1.8729,1.8802,1.8844,1.8862,1.8898,1.8944,1.8981,1.9022,1.9036,1.9069,1.908,1.9132,1.9112,1.9185,1.9155,1.9182,1.92,1.9203,1.9208,1.9185,1.9225,1.9298,1.9306,1.9215,1.9214,1.9213,0,1.8723,1.8793,1.8846,1.8866,1.8917,1.8942,1.8966,1.9005,1.9033,1.9075,1.9094,1.9142,1.9168,1.9206,1.9231,1.9214,1.9302,1.9284,1.9316,1.9315,1.9333,1.9332,1.9411,1.9351,1.9351,1.9351,1.9351,0,1.8784,1.8828,1.8861,1.8894,1.8945,1.8966,1.9016,1.904,1.9075,1.9114,1.9126,1.9163,1.9193,1.9235,1.9255,1.9313,1.9325,1.9339,1.9343,1.9337,1.9335,1.9354,1.9351,1.9353,1.9353,1.9352,1.9352,0,1.8828,1.8852,1.891,1.8954,1.8966,1.9002,1.904,1.9074,1.9096,1.9145,1.9159,1.9194,1.9244,1.9273,1.9337,1.935,1.9414,1.9417,1.9399,1.9401,1.9431,1.9428,1.9525,1.9539,1.947,1.9471,1.9471,0,1.8865,1.8899,1.8946,1.8972,1.8994,1.9036,1.9065,1.9088,1.9118,1.9167,1.9195,1.9246,1.9287,1.9368,1.9401,1.945,1.9455,1.9485,1.9462,1.9455,1.9455,1.9452,1.9456,1.9489,1.949,1.949,1.949,0,1.8927,1.8937,1.8976,1.902,1.9053,1.909,1.9126,1.9148,1.9177,1.921,1.926,1.9292,1.9357,1.9408,1.946,1.9487,1.9494,1.9497,1.9507,1.9501,1.9489,1.9496,1.9409,1.9495,1.9495,1.9494,1.9494,1.9494,1.8969,1.8999,1.9037,1.9081,1.9111,1.9144,1.9178,1.9204,1.9245,1.9297,1.931,1.9363,1.9406,1.9476,1.9504,1.9548,1.9543,1.9557,1.9561,1.9564,1.9565,1.9482,1.9558,1.9558,1.9558,1.9558,1.9558,0,1.9031,1.9056,1.9096,1.9145,1.9181,1.9183,1.9224,1.9253,1.9299,1.9337,1.9377,1.9436,1.9485,1.9523,1.9574,1.9602,1.9607,1.9615,1.9612,1.9619,1.9567,1.9553,1.961,1.961,1.961,1.961,1.961,1.961,1.9068,1.912,1.9135,1.9204,1.9229,1.9279,1.9302,1.9335,1.9365,1.9429,1.9469,1.9492,1.9531,1.9585,1.9631,1.9641,1.966,1.9667,1.9677,1.9628,1.9622,1.9617,1.9604,1.9671,1.9671,1.9726,1.9726,1.9727]},{"header":{"parameterUnit":"m.s-1","parameterCategory":1,"la1":30.2991,"la2":30.254,"lo1":-89.0895,"lo2":-89.0444,"dy":0.0017,"dx":0.0017,"nx":28,"ny":28,"refTime":"2025-06-19T21:00:00:Z","depth":0,"parameterNumber":3,"parameterNumberName":"V-component_of_WINDS"},"data":[0,0,0,0,0,0,0,0,0,0,0,0,0,0,0,0,0,0,0,0,0,0,0,0,0,0,0,0,0,0,0,0,0,0,0,0,0,0,0,0,0,0,0,0,0,0,0,0,0,0,0,0,0,0,0,0,0,0,2.9843,2.9844,0,2.9925,2.9926,2.9927,2.9949,2.9948,2.9948,2.9948,3.0025,3.0027,3.003,0,0,0,0,0,0,0,0,0,0,0,0,0,2.9694,2.9697,2.9843,2.9844,2.9845,2.9925,2.9926,2.9927,2.9949,2.9948,2.9948,2.9947,3.0024,3.0027,3.003,0,0,0,0,0,0,0,0,0,0,0,0,0,2.9766,2.9698,2.9843,2.9866,2.9868,2.9925,2.9926,2.9927,2.9949,2.9948,2.9948,2.9947,3.0023,3.0027,3.0031,3.0068,0,0,3.0042,3.0044,0,0,0,0,0,0,0,0,2.9762,2.9771,2.9861,2.9864,2.9867,2.9926,2.9902,2.9974,2.9949,2.9918,2.9948,2.9947,2.9992,2.9998,3.0015,3.0071,3.0075,3.0042,3.0045,3.0046,3.0047,0,0,0,0,0,0,0,2.9757,2.9768,2.9875,2.9862,2.9866,2.9868,2.9878,2.9916,2.9958,2.9921,2.9923,2.9933,2.9994,3.0012,3.0017,3.0076,3.0042,3.0046,3.0048,3.0049,3.0161,3.0162,0,0,0,0,0,0,2.9749,2.9764,2.9873,2.9878,2.9812,2.9872,2.9882,2.9908,2.9958,2.9965,2.9933,2.9933,3.0006,3.0013,3.002,3.0064,3.0046,3.005,3.0052,3.016,3.0161,3.0162,0,0,0,0,0,0,2.9746,2.9759,2.9869,2.9821,2.9835,2.9875,2.9904,2.991,2.9928,2.9967,2.9974,2.9944,3.0005,3.0015,3.0055,3.0067,3.0051,3.0055,3.0159,3.016,3.0161,3.0154,0,0,0,0,0,0,2.9742,2.9757,2.9775,2.9821,2.9838,2.9906,2.9905,2.9912,2.9935,2.9936,2.9979,2.9986,3.0005,3.0049,3.0059,3.0072,3.0058,3.0158,3.016,3.0161,3.0153,3.0154,3.0155,0,0,0,0,0,2.9736,2.9769,2.9776,2.9789,2.9861,2.9907,2.9916,2.994,2.9936,2.9952,2.9976,2.9984,3.0064,3.0053,3.0064,3.0078,3.0158,3.0159,3.0161,3.0152,3.0154,3.0155,0,0,0,0,0,0,2.9722,2.9776,2.9784,2.9833,2.9865,2.991,2.9932,2.9942,2.9974,2.9973,3.0,3.0009,3.0046,3.0066,3.0053,3.0114,3.0111,3.0114,3.01,3.0102,3.0103,3.0097,3.0061,0,0,0,0,0,2.9724,2.976,2.9804,2.9843,2.9859,2.9892,2.9913,2.9929,2.9962,2.9975,3.0003,3.0033,3.0064,3.0084,3.0116,3.0156,3.0163,3.017,3.0171,3.0172,3.0175,3.0193,3.0196,3.0167,3.0167,3.0167,0,0,2.973,2.9764,2.9785,2.9841,2.9868,2.99,2.9904,2.9939,2.9962,2.998,3.002,3.004,3.0075,3.0114,3.0133,3.0132,3.0184,3.0174,3.0175,3.0177,3.0195,3.0198,3.02,3.0168,3.0168,3.0168,0,0,2.9757,2.9788,2.9822,2.9848,2.9888,2.991,2.9917,2.996,2.9975,3.0015,3.0028,3.0054,3.0109,3.0132,3.0151,3.0181,3.0188,3.019,3.0196,3.0214,3.0216,3.0218,3.0226,3.0229,3.0192,3.0192,3.0192,0,2.9758,2.9811,2.9837,2.9871,2.9894,2.9912,2.9944,2.9967,3.0015,3.0028,3.0027,3.0093,3.0118,3.0161,3.0168,3.0183,3.019,3.0185,3.0214,3.0216,3.0219,3.0226,3.023,3.0192,3.0192,3.0192,3.0192,0,2.9808,2.9844,2.9866,2.9913,2.9937,2.997,2.9998,3.0019,3.0031,3.0051,3.0089,3.0119,3.0155,3.0166,3.0178,3.0209,3.0207,3.0209,3.0206,3.0221,3.0228,3.0232,3.0192,3.0192,3.0192,3.0192,0,0,2.9831,2.9889,2.9896,2.9916,2.996,2.9986,3.0017,3.0054,3.007,3.01,3.0125,3.0169,3.017,3.0191,3.0205,3.0221,3.0239,3.0221,3.0222,3.0222,3.0271,3.0268,3.0271,3.0244,3.0244,3.0245,3.0267,0,2.9861,2.9921,2.9943,2.999,3.0021,3.0036,3.0062,3.009,3.0108,3.0134,3.0153,3.0183,3.0184,3.0197,3.0213,3.0233,3.0249,3.0232,3.0264,3.0264,3.0254,3.0276,3.0274,3.0294,3.0271,3.0271,3.0272,0,2.9905,2.9937,2.9988,3.0024,3.0038,3.0062,3.0094,3.012,3.015,3.0162,3.0183,3.0196,3.0225,3.0219,3.0257,3.0245,3.0259,3.027,3.0272,3.0275,3.0269,3.0278,3.0301,3.0303,3.0277,3.0277,3.0276,0,2.9913,2.9968,3.0005,3.0021,3.0065,3.0081,3.0099,3.0129,3.0148,3.0175,3.0187,3.0217,3.0233,3.0254,3.0272,3.0267,3.0307,3.0304,3.0316,3.0315,3.0324,3.0323,3.0348,3.0334,3.0334,3.0334,3.0334,0,2.9944,2.9973,3.0008,3.0031,3.0062,3.0086,3.0115,3.0134,3.016,3.0183,3.0197,3.0218,3.0242,3.0265,3.0279,3.0307,3.0314,3.0322,3.0325,3.0321,3.0319,3.033,3.0328,3.0335,3.0334,3.0334,3.0334,0,2.9958,2.9983,3.0023,3.0061,3.0071,3.0092,3.0123,3.0143,3.0161,3.019,3.0198,3.0225,3.0252,3.0273,3.0308,3.0317,3.0346,3.035,3.0337,3.0338,3.0348,3.0346,3.0379,3.0384,3.0368,3.0368,3.0368,0,2.9975,2.9998,3.0038,3.0056,3.0074,3.0102,3.0122,3.0144,3.0162,3.0196,3.0211,3.0239,3.0264,3.0306,3.0327,3.0353,3.0357,3.0367,3.0361,3.0354,3.0355,3.0353,3.0354,3.0367,3.0367,3.0367,3.0367,0,3.0003,3.0013,3.0042,3.0073,3.0096,3.0122,3.0147,3.016,3.0186,3.0205,3.0234,3.0253,3.0288,3.0315,3.0343,3.0359,3.0366,3.0369,3.0373,3.0368,3.0358,3.0361,3.0338,3.0368,3.0368,3.0368,3.0368,3.0368,3.0018,3.0037,3.0068,3.0098,3.0119,3.0142,3.0162,3.0182,3.0207,3.0239,3.0249,3.0278,3.0303,3.0341,3.0356,3.0377,3.0377,3.0383,3.0384,3.0385,3.0383,3.0355,3.0382,3.0382,3.0382,3.0382,3.0382,0,3.0044,3.0063,3.0091,3.0126,3.0148,3.0155,3.0182,3.02,3.0226,3.0249,3.0273,3.0303,3.0329,3.0351,3.0377,3.0389,3.0392,3.0394,3.0393,3.0396,3.0383,3.0377,3.0391,3.0391,3.0391,3.0391,3.0391,3.0391,3.006,3.0093,3.0106,3.0148,3.0167,3.0196,3.0211,3.0231,3.0249,3.0284,3.0306,3.032,3.0342,3.0369,3.0391,3.0397,3.0405,3.0405,3.0411,3.0399,3.0398,3.0396,3.0391,3.0407,3.0407,3.0423,3.0423,3.0423]}]]